STARLINK-1413, 45689

Orbit data source: Space-Track

STARLINK-1413, 45689 is a payload satellite owned by SpaceX/Seattle (US) in LEO that was launched on Thu, 04 Jun 2020 UTC via an FALCON 9 launch vehicle from the Air Force Eastern Test Range (AFETR). Payload-class satellites include a variety of spacecraft equipped with specific instruments for various scientific and technological missions. These include communications satellites like Starlink; space stations such as the ISS; scientific satellites like the Hubble; Earth observation satellites from companies like Planet Labs, Umbra, and HawkEye 360; GPS; miniature CubeSats for education and research; and military/defense satellites.

Loading next visibility...
Identifier
45689, 2020-035AJ
Orbit
LEO
Country
Flag of USUS
Related business
Manufacturer
SpaceX/Seattle
Mission
Partially operational Commercial Communications
Bus & Motor
STARLINK, Unknown motor
Mass
260 kg wet, ~248 kg dry
Launch date (UTC)
2020-06-04 (6 years ago)
Launch vehicle
FALCON 9
Launch site
Air Force Eastern Test Range (AFETR)
Object type
Payload
Rocket body
Debris
Shape & HBR
Box + 1 Pan, 10.1 m
Radar Cross Section
13.562 m², Large (>1 m²)

Expand to show TLE details & history
Last TLE update: 9 hours ago

TLE from 9 hours ago
0 STARLINK-1413
1 45689U 20035AJ  26162.78292208  .00046099  00000-0  13251-2 0  9999
2 45689  53.1580 331.3996 0001357 224.5898 135.4996 15.35384037333313
Epoch: 2026-06-11T18:47Z
TLE epoch observation values (Epoch: 2026-06-11T18:47:24.467Z)
Latitude
-0.00003°
Longitude
149.42586°
Altitude
461.343 km
Speed
7.637 km/s
True Right ascension
22h 05m 35s
True Declination
0° 00' 00"
Sunlit
Object was in daylight at epoch
Visualization orbit readout
Latitude
Unknown
Longitude
Unknown
Altitude
Unknown
Speed
Unknown
Apparent Right ascension
Unknown
Apparent Declination
Unknown
Sunlit
N/A
Visualization observer readout
Local Sidereal Time
14:01:33
Azimuth
Unknown
Elevation
Unknown
Doppler factor
Unknown
Orbital elements
Apogee altitude
460.965 km
Perigee altitude
459.109 km
Semi-major axis
6,838.174 km
Eccentricity
0.00014
Inclination
53.158°
RAAN
331.3996°
Arg. of periapsis
224.5898°
True anomaly
135.5105°
Mean anomaly
135.4996°
Eccentric anomaly
135.50505°
Mean motion
3.83825 °/min
Orbital period
93.79 mins
BSTAR
0.0013251
Loading maneuver chart data...
Computing Atmospheric mass density...

Documentation

Showing up to 5 results
|